,,PA_Meas_PMT16A,,PR_Meas_QMR101_102,,RH_Meas_QMH101,,SR_Meas_QMS101,,TA_Meas_QMH101,,GenWind,,GenWind,
time,status,PA,status,PR,status,RH,status,SR,status,TA,status,DirAvg,status,SpdAvg,
2011-12-26, 00:00:04,VALID,918.402,VALID,0,VALID,97.6483,VALID,0,VALID,19.7028,VALID,143,VALID,0.760547,
2011-12-26, 00:01:04,VALID,918.4,VALID,0,VALID,97.656,VALID,0,VALID,19.7223,VALID,143,VALID,0.403125,
2011-12-26, 00:02:04,VALID,918.395,VALID,0,VALID,97.6483,VALID,0,VALID,19.6623,VALID,143,VALID,0.588281,
2011-12-26, 00:03:04,VALID,918.416,VALID,0,VALID,97.6483,VALID,0,VALID,19.7028,VALID,143,VALID,0.380859,
2011-12-26, 00:04:04,VALID,918.395,VALID,0,VALID,97.6712,VALID,0,VALID,19.6818,VALID,143,VALID,0.477734,
2011-12-26, 00:05:04,VALID,918.423,VALID,0,VALID,97.6788,VALID,0,VALID,19.7013,VALID,143,VALID,0.169531,
2011-12-26, 00:06:04,VALID,918.423,VALID,0,VALID,97.6712,VALID,0,VALID,19.7208,VALID,143,VALID,0.571094,
2011-12-26, 00:07:04,VALID,918.447,VALID,0,VALID,97.6865,VALID,0,VALID,19.7403,VALID,143,VALID,0.5875,
2011-12-26, 00:08:04,VALID,918.415,VALID,0,VALID,97.7017,VALID,0,VALID,19.7403,VALID,143,VALID,0.350781,
2011-12-26, 00:09:04,VALID,918.428,VALID,0,VALID,97.6788,VALID,0,VALID,19.7808,VALID,143,VALID,0.272656,
2011-12-26, 00:10:04,VALID,918.424,VALID,0,VALID,97.6865,VALID,0.107441,VALID,19.7808,VALID,143,VALID,0.206641,
2011-12-26, 00:11:04,VALID,918.42,VALID,0,VALID,97.6941,VALID,0,VALID,19.7388,VALID,143,VALID,0.236719,
2011-12-26, 00:12:04,VALID,918.412,VALID,0,VALID,97.6636,VALID,0,VALID,19.7778,VALID,143,VALID,0.401953,
2011-12-26, 00:13:04,VALID,918.385,VALID,0,VALID,97.7093,VALID,0,VALID,19.7778,VALID,143,VALID,0.517187,
2011-12-26, 00:14:04,VALID,918.364,VALID,0,VALID,97.6865,VALID,0,VALID,19.7808,VALID,158,VALID,0.663281,
2011-12-26, 00:15:04,VALID,918.356,VALID,0,VALID,97.6941,VALID,0.107441,VALID,19.8198,VALID,158,VALID,0.459766,
2011-12-26, 00:16:04,VALID,918.371,VALID,0,VALID,97.6865,VALID,0,VALID,19.7793,VALID,158,VALID,0.238672,
2011-12-26, 00:17:04,VALID,918.347,VALID,0,VALID,97.6788,VALID,0.107441,VALID,19.9008,VALID,158,VALID,0.808594,
2011-12-26, 00:18:04,VALID,918.344,VALID,0,VALID,97.7017,VALID,0,VALID,19.8183,VALID,157,VALID,1.16016,
2011-12-26, 00:19:04,VALID,918.312,VALID,0,VALID,97.6941,VALID,0,VALID,19.8393,VALID,165,VALID,0.748438,
2011-12-26, 00:20:04,VALID,918.326,VALID,0,VALID,97.6788,VALID,0,VALID,19.8393,VALID,165,VALID,0.535547,
2011-12-26, 00:21:04,VALID,918.33,VALID,0,VALID,97.7017,VALID,0,VALID,19.7958,VALID,165,VALID,0.657031,
2011-12-26, 00:22:04,VALID,918.311,VALID,0,VALID,97.6865,VALID,0,VALID,19.8198,VALID,165,VALID,1.30078,
2011-12-26, 00:23:04,VALID,918.322,VALID,0,VALID,97.6941,VALID,0,VALID,19.8198,VALID,165,VALID,0.958984,
2011-12-26, 00:24:04,VALID,918.319,VALID,0,VALID,97.7093,VALID,0,VALID,19.7988,VALID,162,VALID,0.924609,
2011-12-26, 00:25:04,VALID,918.296,VALID,0,VALID,97.6941,VALID,0,VALID,19.7793,VALID,162,VALID,0.564062,
2011-12-26, 00:26:04,VALID,918.316,VALID,0,VALID,97.7017,VALID,0,VALID,19.8198,VALID,162,VALID,0.437109,
2011-12-26, 00:27:04,VALID,918.287,VALID,0,VALID,97.7093,VALID,0,VALID,19.8198,VALID,162,VALID,0.166797,
2011-12-26, 00:28:04,VALID,918.292,VALID,0,VALID,97.7246,VALID,0,VALID,19.8198,VALID,162,VALID,0.489062,
2011-12-26, 00:29:04,VALID,918.28,VALID,0,VALID,97.6865,VALID,0,VALID,19.7808,VALID,162,VALID,0.989844,
2011-12-26, 00:30:04,VALID,918.277,VALID,0,VALID,97.6941,VALID,0,VALID,19.8018,VALID,162,VALID,0.0546875,
2011-12-26, 00:31:04,VALID,918.266,VALID,0,VALID,97.6941,VALID,0,VALID,19.7808,VALID,162,VALID,0.428125,
2011-12-26, 00:32:04,VALID,918.221,VALID,0,VALID,97.6941,VALID,0,VALID,19.7808,VALID,160,VALID,0.749219,
2011-12-26, 00:33:04,VALID,918.243,VALID,0,VALID,97.6712,VALID,0,VALID,19.8003,VALID,157,VALID,0.140234,
2011-12-26, 00:34:04,VALID,918.209,VALID,0,VALID,97.6636,VALID,0,VALID,19.8003,VALID,157,VALID,0.490625,
2011-12-26, 00:35:04,VALID,918.163,VALID,0,VALID,97.656,VALID,0,VALID,19.8198,VALID,157,VALID,0.325,
2011-12-26, 00:36:04,VALID,918.16,VALID,0,VALID,97.6636,VALID,0,VALID,19.8003,VALID,157,VALID,0.779688,
2011-12-26, 00:37:04,VALID,918.145,VALID,0,VALID,97.6255,VALID,0.107441,VALID,19.8183,VALID,158,VALID,0.308203,
2011-12-26, 00:38:04,VALID,918.165,VALID,0,VALID,97.6026,VALID,0,VALID,19.8198,VALID,157,VALID,0.74375,
2011-12-26, 00:39:04,VALID,918.151,VALID,0,VALID,97.5721,VALID,0,VALID,19.8393,VALID,157,VALID,0.415625,
2011-12-26, 00:40:04,VALID,918.172,VALID,0,VALID,97.5645,VALID,0,VALID,19.7988,VALID,157,VALID,0.526172,
2011-12-26, 00:41:04,VALID,918.148,VALID,0,VALID,97.5569,VALID,0,VALID,19.7988,VALID,157,VALID,0.609375,
2011-12-26, 00:42:04,VALID,918.128,VALID,0,VALID,97.5569,VALID,0,VALID,19.8183,VALID,157,VALID,0.277734,
2011-12-26, 00:43:04,VALID,918.133,VALID,0,VALID,97.5492,VALID,0.107441,VALID,19.8183,VALID,156,VALID,0.155469,
2011-12-26, 00:44:04,VALID,918.131,VALID,0,VALID,97.5264,VALID,0,VALID,19.7988,VALID,156,VALID,0.208203,
2011-12-26, 00:45:04,VALID,918.118,VALID,0,VALID,97.534,VALID,0.107441,VALID,19.8198,VALID,156,VALID,0.028125,
2011-12-26, 00:46:04,VALID,918.084,VALID,0,VALID,97.5264,VALID,0,VALID,19.7793,VALID,156,VALID,0.536719,
2011-12-26, 00:47:04,VALID,918.07,VALID,0,VALID,97.5111,VALID,0,VALID,19.7988,VALID,156,VALID,0.275,
2011-12-26, 00:48:04,VALID,918.043,VALID,0,VALID,97.4959,VALID,0,VALID,19.8183,VALID,156,VALID,0.258594,
2011-12-26, 00:49:04,VALID,918.024,VALID,0,VALID,97.4959,VALID,0,VALID,19.7988,VALID,156,VALID,0.0230469,
2011-12-26, 00:50:04,VALID,918.021,VALID,0,VALID,97.473,VALID,0,VALID,19.7988,VALID,156,VALID,0.2875,
2011-12-26, 00:51:04,VALID,918.026,VALID,0,VALID,97.5187,VALID,0,VALID,19.7793,VALID,156,VALID,0.115625,
2011-12-26, 00:52:04,VALID,918.015,VALID,0,VALID,97.5187,VALID,0,VALID,19.8183,VALID,156,VALID,0.0289063,
2011-12-26, 00:53:04,VALID,917.988,VALID,0,VALID,97.5111,VALID,0.107441,VALID,19.8198,VALID,156,VALID,0,
2011-12-26, 00:54:04,VALID,918,VALID,0,VALID,97.5187,VALID,0,VALID,19.8198,VALID,156,VALID,0,
2011-12-26, 00:55:04,VALID,917.998,VALID,0,VALID,97.5187,VALID,0,VALID,19.7988,VALID,156,VALID,0.0773437,
2011-12-26, 00:56:04,VALID,917.981,VALID,0,VALID,97.5264,VALID,0.107441,VALID,19.7988,VALID,156,VALID,0.115234,
2011-12-26, 00:57:04,VALID,917.963,VALID,0,VALID,97.5416,VALID,0,VALID,19.7988,VALID,156,VALID,0,
2011-12-26, 00:58:04,VALID,917.955,VALID,0,VALID,97.5187,VALID,0,VALID,19.7988,VALID,156,VALID,0,
2011-12-26, 00:59:04,VALID,917.971,VALID,0,VALID,97.534,VALID,0.107441,VALID,19.7988,VALID,156,VALID,0.141797,
2011-12-26, 01:00:04,VALID,917.933,VALID,0,VALID,97.5569,VALID,0,VALID,19.7598,VALID,156,VALID,0,
2011-12-26, 01:01:04,VALID,917.937,VALID,0,VALID,97.5569,VALID,0.107441,VALID,19.7988,VALID,156,VALID,0,
2011-12-26, 01:02:04,VALID,917.895,VALID,0,VALID,97.5569,VALID,0.107441,VALID,19.7598,VALID,156,VALID,0,
2011-12-26, 01:03:04,VALID,917.88,VALID,0,VALID,97.5569,VALID,0,VALID,19.7808,VALID,156,VALID,0,
2011-12-26, 01:04:04,VALID,917.879,VALID,0,VALID,97.5873,VALID,0,VALID,19.7808,VALID,156,VALID,0,
2011-12-26, 01:05:04,VALID,917.891,VALID,0,VALID,97.5569,VALID,0,VALID,19.7598,VALID,156,VALID,0,
2011-12-26, 01:06:04,VALID,917.884,VALID,0,VALID,97.5645,VALID,0.107441,VALID,19.7598,VALID,156,VALID,0,
2011-12-26, 01:07:04,VALID,917.86,VALID,0,VALID,97.5645,VALID,0,VALID,19.7613,VALID,156,VALID,0,
2011-12-26, 01:08:04,VALID,917.82,VALID,0,VALID,97.5492,VALID,0,VALID,19.7613,VALID,156,VALID,0,
2011-12-26, 01:09:04,VALID,917.822,VALID,0,VALID,97.5645,VALID,0.107441,VALID,19.7208,VALID,156,VALID,0,
2011-12-26, 01:10:04,VALID,917.808,VALID,0,VALID,97.5645,VALID,0,VALID,19.7208,VALID,156,VALID,0,
2011-12-26, 01:11:04,VALID,917.832,VALID,0,VALID,97.5721,VALID,0,VALID,19.7013,VALID,156,VALID,0,
2011-12-26, 01:12:04,VALID,917.792,VALID,0,VALID,97.534,VALID,0,VALID,19.7028,VALID,156,VALID,0.275391,
2011-12-26, 01:13:04,VALID,917.764,VALID,0,VALID,97.534,VALID,0,VALID,19.6623,VALID,156,VALID,0.407813,
2011-12-26, 01:14:04,VALID,917.78,VALID,0,VALID,97.5416,VALID,0,VALID,19.6428,VALID,156,VALID,0.365234,
2011-12-26, 01:15:04,VALID,917.754,VALID,0,VALID,97.5797,VALID,0,VALID,19.6233,VALID,156,VALID,0,
2011-12-26, 01:16:04,VALID,917.731,VALID,0,VALID,97.6026,VALID,0,VALID,19.6638,VALID,156,VALID,0,
2011-12-26, 01:17:04,VALID,917.742,VALID,0,VALID,97.6255,VALID,0,VALID,19.6623,VALID,156,VALID,0,
2011-12-26, 01:18:04,VALID,917.695,VALID,0,VALID,97.6026,VALID,0,VALID,19.6623,VALID,156,VALID,0,
2011-12-26, 01:19:04,VALID,917.691,VALID,0,VALID,97.6026,VALID,0,VALID,19.6833,VALID,156,VALID,0,
2011-12-26, 01:20:04,VALID,917.674,VALID,0,VALID,97.595,VALID,0,VALID,19.6623,VALID,156,VALID,0,
2011-12-26, 01:21:04,VALID,917.667,VALID,0,VALID,97.6026,VALID,0.107441,VALID,19.6428,VALID,156,VALID,0.000390625,
2011-12-26, 01:22:04,VALID,917.639,VALID,0,VALID,97.5873,VALID,0.107441,VALID,19.6428,VALID,156,VALID,0.372266,
2011-12-26, 01:23:04,VALID,917.621,VALID,0,VALID,97.6026,VALID,0.107441,VALID,19.6623,VALID,156,VALID,0.450391,
2011-12-26, 01:24:04,VALID,917.618,VALID,0,VALID,97.6255,VALID,0.107441,VALID,19.6818,VALID,155,VALID,0.523828,
2011-12-26, 01:25:04,VALID,917.6,VALID,0,VALID,97.6178,VALID,0.107441,VALID,19.6818,VALID,134,VALID,0.939453,
2011-12-26, 01:26:04,VALID,917.58,VALID,0,VALID,97.6255,VALID,0.107441,VALID,19.7013,VALID,134,VALID,0.624219,
2011-12-26, 01:27:04,VALID,917.577,VALID,0,VALID,97.6255,VALID,0.107441,VALID,19.7013,VALID,134,VALID,0.882031,
2011-12-26, 01:28:04,VALID,917.599,VALID,0,VALID,97.6178,VALID,0,VALID,19.7208,VALID,134,VALID,0.535547,
2011-12-26, 01:29:04,VALID,917.571,VALID,0,VALID,97.6178,VALID,0,VALID,19.7418,VALID,134,VALID,0.534766,
2011-12-26, 01:30:04,VALID,917.535,VALID,0,VALID,97.6178,VALID,0,VALID,19.7208,VALID,161,VALID,0.390234,
2011-12-26, 01:31:04,VALID,917.56,VALID,0,VALID,97.6255,VALID,0,VALID,19.7208,VALID,161,VALID,0.753906,
2011-12-26, 01:32:04,VALID,917.527,VALID,0,VALID,97.6102,VALID,0,VALID,19.7403,VALID,161,VALID,0.06875,
2011-12-26, 01:33:04,VALID,917.502,VALID,0,VALID,97.6331,VALID,0,VALID,19.7418,VALID,161,VALID,0.688281,
2011-12-26, 01:34:04,VALID,917.491,VALID,0,VALID,97.6483,VALID,0.107441,VALID,19.7403,VALID,161,VALID,0.676172,
2011-12-26, 01:35:04,VALID,917.471,VALID,0,VALID,97.6331,VALID,0,VALID,19.7613,VALID,161,VALID,0.539453,
2011-12-26, 01:36:04,VALID,917.474,VALID,0,VALID,97.6407,VALID,0,VALID,19.7613,VALID,161,VALID,0.55625,
2011-12-26, 01:37:04,VALID,917.476,VALID,0,VALID,97.6483,VALID,0,VALID,19.7403,VALID,161,VALID,0.648438,
2011-12-26, 01:38:04,VALID,917.463,VALID,0,VALID,97.6483,VALID,0,VALID,19.7598,VALID,161,VALID,0.480078,
2011-12-26, 01:39:04,VALID,917.471,VALID,0,VALID,97.6483,VALID,0,VALID,19.7403,VALID,161,VALID,0.942578,
2011-12-26, 01:40:04,VALID,917.453,VALID,0,VALID,97.6483,VALID,0,VALID,19.7598,VALID,161,VALID,0.639453,
2011-12-26, 01:41:04,VALID,917.466,VALID,0,VALID,97.6407,VALID,0,VALID,19.7403,VALID,161,VALID,0.627344,
2011-12-26, 01:42:04,VALID,917.39,VALID,0,VALID,97.6483,VALID,0,VALID,19.7598,VALID,161,VALID,0.439453,
2011-12-26, 01:43:04,VALID,917.412,VALID,0,VALID,97.6636,VALID,0,VALID,19.7598,VALID,161,VALID,0.827734,
2011-12-26, 01:44:04,VALID,917.396,VALID,0,VALID,97.6483,VALID,0,VALID,19.8003,VALID,161,VALID,0.944922,
2011-12-26, 01:45:04,VALID,917.355,VALID,0,VALID,97.6636,VALID,0,VALID,19.7598,VALID,161,VALID,0.804688,
2011-12-26, 01:46:04,VALID,917.362,VALID,0,VALID,97.6483,VALID,0,VALID,19.7808,VALID,161,VALID,0.585156,
2011-12-26, 01:47:04,VALID,917.308,VALID,0,VALID,97.6636,VALID,0,VALID,19.7808,VALID,160,VALID,0.750391,
2011-12-26, 01:48:04,VALID,917.288,VALID,0,VALID,97.6712,VALID,0,VALID,19.7598,VALID,142,VALID,0.880469,
2011-12-26, 01:49:04,VALID,917.257,VALID,0,VALID,97.6483,VALID,0,VALID,19.7613,VALID,142,VALID,1.09609,
2011-12-26, 01:50:04,VALID,917.221,VALID,0,VALID,97.6255,VALID,0,VALID,19.7208,VALID,142,VALID,1.25352,
2011-12-26, 01:51:04,VALID,917.231,VALID,0,VALID,97.6026,VALID,0,VALID,19.7403,VALID,142,VALID,1.15352,
2011-12-26, 01:52:04,VALID,917.215,VALID,0,VALID,97.6026,VALID,0,VALID,19.7598,VALID,142,VALID,0.962109,
2011-12-26, 01:53:04,VALID,917.209,VALID,0,VALID,97.5721,VALID,0,VALID,19.8198,VALID,142,VALID,0.771094,
2011-12-26, 01:54:04,VALID,917.209,VALID,0,VALID,97.5797,VALID,0,VALID,19.7988,VALID,142,VALID,0.322656,
2011-12-26, 01:55:04,VALID,917.203,VALID,0,VALID,97.5721,VALID,0,VALID,19.8393,VALID,142,VALID,0.778516,
2011-12-26, 01:56:04,VALID,917.196,VALID,0,VALID,97.5569,VALID,0,VALID,19.8378,VALID,154,VALID,0.634766,
2011-12-26, 01:57:04,VALID,917.165,VALID,0,VALID,97.534,VALID,0,VALID,19.8588,VALID,156,VALID,0.667578,
2011-12-26, 01:58:04,VALID,917.176,VALID,0,VALID,97.5416,VALID,0,VALID,19.8378,VALID,163,VALID,0.907812,
2011-12-26, 01:59:04,VALID,917.184,VALID,0,VALID,97.5416,VALID,0,VALID,19.8783,VALID,162,VALID,0.874609,
2011-12-26, 02:00:04,VALID,917.215,VALID,0,VALID,97.534,VALID,0,VALID,19.8768,VALID,162,VALID,0.901953,
2011-12-26, 02:01:04,VALID,917.194,VALID,0,VALID,97.5111,VALID,0,VALID,19.8573,VALID,162,VALID,0.454297,
2011-12-26, 02:02:04,VALID,917.19,VALID,0,VALID,97.4959,VALID,0,VALID,19.8573,VALID,162,VALID,0.871094,
2011-12-26, 02:03:04,VALID,917.219,VALID,0,VALID,97.5264,VALID,0,VALID,19.8573,VALID,162,VALID,0.726953,
2011-12-26, 02:04:04,VALID,917.186,VALID,0,VALID,97.5035,VALID,0,VALID,19.8573,VALID,154,VALID,1.10078,
2011-12-26, 02:05:04,VALID,917.167,VALID,0,VALID,97.4959,VALID,0,VALID,19.8783,VALID,154,VALID,0.903516,
2011-12-26, 02:06:04,VALID,917.158,VALID,0,VALID,97.5111,VALID,0,VALID,19.8573,VALID,154,VALID,1.18242,
2011-12-26, 02:07:04,VALID,917.144,VALID,0,VALID,97.4959,VALID,0,VALID,19.8573,VALID,154,VALID,0.920313,
2011-12-26, 02:08:04,VALID,917.087,VALID,0,VALID,97.5111,VALID,0,VALID,19.8378,VALID,154,VALID,1.20703,
2011-12-26, 02:09:04,VALID,917.083,VALID,0,VALID,97.5035,VALID,0,VALID,19.8378,VALID,154,VALID,0.792578,
2011-12-26, 02:10:04,VALID,917.096,VALID,0,VALID,97.5111,VALID,0,VALID,19.8183,VALID,156,VALID,1.39531,
2011-12-26, 02:11:04,VALID,917.088,VALID,0,VALID,97.4959,VALID,0.107441,VALID,19.8393,VALID,166,VALID,0.975781,
2011-12-26, 02:12:04,VALID,917.066,VALID,0,VALID,97.4959,VALID,0,VALID,19.8183,VALID,168,VALID,1.01406,
2011-12-26, 02:13:04,VALID,917.059,VALID,0,VALID,97.5264,VALID,0,VALID,19.8198,VALID,157,VALID,0.878906,
2011-12-26, 02:14:04,VALID,917.039,VALID,0,VALID,97.5035,VALID,0,VALID,19.8393,VALID,165,VALID,1.0918,
2011-12-26, 02:15:04,VALID,917.048,VALID,0,VALID,97.5035,VALID,0,VALID,19.8393,VALID,175,VALID,1.10469,
2011-12-26, 02:16:04,VALID,917.03,VALID,0,VALID,97.4959,VALID,0,VALID,19.8393,VALID,175,VALID,0.669531,
2011-12-26, 02:17:04,VALID,916.966,VALID,0,VALID,97.5035,VALID,0,VALID,19.8393,VALID,163,VALID,1.65195,
2011-12-26, 02:18:04,VALID,916.964,VALID,0,VALID,97.4882,VALID,0,VALID,19.8183,VALID,163,VALID,0.371875,
2011-12-26, 02:19:04,VALID,916.958,VALID,0,VALID,97.5187,VALID,0,VALID,19.8393,VALID,163,VALID,0.491797,
2011-12-26, 02:20:04,VALID,916.944,VALID,0,VALID,97.4959,VALID,0,VALID,19.8378,VALID,163,VALID,0.434766,
2011-12-26, 02:21:04,VALID,916.924,VALID,0,VALID,97.4654,VALID,0,VALID,19.8183,VALID,140,VALID,0.895312,
2011-12-26, 02:22:04,VALID,916.865,VALID,0,VALID,97.4501,VALID,0,VALID,19.8183,VALID,138,VALID,1.26836,
2011-12-26, 02:23:04,VALID,916.84,VALID,0,VALID,97.4425,VALID,0,VALID,19.8378,VALID,138,VALID,0.779297,
2011-12-26, 02:24:04,VALID,916.824,VALID,0,VALID,97.4273,VALID,0,VALID,19.8183,VALID,121,VALID,0.979688,
2011-12-26, 02:25:04,VALID,916.773,VALID,0,VALID,97.4196,VALID,0,VALID,19.8588,VALID,125,VALID,0.9,
2011-12-26, 02:26:04,VALID,916.788,VALID,0,VALID,97.3968,VALID,0,VALID,19.8378,VALID,125,VALID,0.985156,
2011-12-26, 02:27:04,VALID,916.759,VALID,0,VALID,97.3891,VALID,0,VALID,19.8183,VALID,125,VALID,0.791016,
2011-12-26, 02:28:04,VALID,916.751,VALID,0,VALID,97.3739,VALID,0,VALID,19.8588,VALID,140,VALID,0.730469,
2011-12-26, 02:29:04,VALID,916.731,VALID,0,VALID,97.3815,VALID,0,VALID,19.8588,VALID,150,VALID,0.735937,
2011-12-26, 02:30:04,VALID,916.733,VALID,0,VALID,97.3891,VALID,0,VALID,19.8393,VALID,161,VALID,1.24492,
2011-12-26, 02:31:04,VALID,916.698,VALID,0,VALID,97.3663,VALID,0,VALID,19.8183,VALID,168,VALID,1.38633,
2011-12-26, 02:32:04,VALID,916.692,VALID,0,VALID,97.3815,VALID,0,VALID,19.8183,VALID,151,VALID,1.16875,
2011-12-26, 02:33:04,VALID,916.68,VALID,0,VALID,97.3358,VALID,0,VALID,19.8393,VALID,158,VALID,0.451172,
2011-12-26, 02:34:04,VALID,916.65,VALID,0,VALID,97.3586,VALID,0,VALID,19.8183,VALID,164,VALID,0.454297,
2011-12-26, 02:35:04,VALID,916.654,VALID,0,VALID,97.3358,VALID,0,VALID,19.8183,VALID,149,VALID,1.04062,
2011-12-26, 02:36:04,VALID,916.643,VALID,0,VALID,97.351,VALID,0,VALID,19.8198,VALID,149,VALID,0.871875,
2011-12-26, 02:37:04,VALID,916.614,VALID,0,VALID,97.3358,VALID,0,VALID,19.8393,VALID,147,VALID,0.771875,
2011-12-26, 02:38:04,VALID,916.584,VALID,0,VALID,97.3053,VALID,0.107441,VALID,19.8183,VALID,157,VALID,0.920313,
2011-12-26, 02:39:04,VALID,916.564,VALID,0,VALID,97.3053,VALID,0,VALID,19.8183,VALID,131,VALID,0.847266,
2011-12-26, 02:40:04,VALID,916.542,VALID,0,VALID,97.3053,VALID,0,VALID,19.8198,VALID,162,VALID,1.0043,
2011-12-26, 02:41:04,VALID,916.509,VALID,0,VALID,97.29,VALID,0,VALID,19.8183,VALID,150,VALID,1.22539,
2011-12-26, 02:42:04,VALID,916.48,VALID,0,VALID,97.29,VALID,0,VALID,19.7988,VALID,168,VALID,1.66875,
2011-12-26, 02:43:04,VALID,916.499,VALID,0,VALID,97.2672,VALID,0,VALID,19.7988,VALID,170,VALID,1.34414,
2011-12-26, 02:44:04,VALID,916.488,VALID,0,VALID,97.2672,VALID,0,VALID,19.8393,VALID,160,VALID,0.744531,
2011-12-26, 02:45:04,VALID,916.488,VALID,0,VALID,97.2672,VALID,0,VALID,19.8003,VALID,158,VALID,1.83008,
2011-12-26, 02:46:04,VALID,916.497,VALID,0,VALID,97.2367,VALID,0,VALID,19.8183,VALID,166,VALID,1.01953,
2011-12-26, 02:47:04,VALID,916.499,VALID,0,VALID,97.229,VALID,0,VALID,19.8183,VALID,183,VALID,1.46328,
2011-12-26, 02:48:04,VALID,916.494,VALID,0,VALID,97.2443,VALID,0,VALID,19.8183,VALID,167,VALID,1.35039,
2011-12-26, 02:49:04,VALID,916.521,VALID,0,VALID,97.2214,VALID,0,VALID,19.8183,VALID,129,VALID,0.868359,
2011-12-26, 02:50:04,VALID,916.526,VALID,0,VALID,97.2367,VALID,0,VALID,19.8393,VALID,158,VALID,0.736328,
2011-12-26, 02:51:04,VALID,916.525,VALID,0,VALID,97.2138,VALID,0,VALID,19.8393,VALID,158,VALID,0.603906,
2011-12-26, 02:52:04,VALID,916.547,VALID,0,VALID,97.2214,VALID,0,VALID,19.8183,VALID,152,VALID,0.875391,
2011-12-26, 02:53:04,VALID,916.518,VALID,0,VALID,97.2138,VALID,0,VALID,19.8198,VALID,168,VALID,1.45117,
2011-12-26, 02:54:04,VALID,916.537,VALID,0,VALID,97.1833,VALID,0,VALID,19.8183,VALID,169,VALID,1.42305,
2011-12-26, 02:55:04,VALID,916.455,VALID,0,VALID,97.1452,VALID,0,VALID,19.8183,VALID,159,VALID,2.4625,
2011-12-26, 02:56:04,VALID,916.503,VALID,0,VALID,97.1299,VALID,0,VALID,19.8393,VALID,170,VALID,1.96836,
2011-12-26, 02:57:04,VALID,916.488,VALID,0,VALID,97.0842,VALID,0,VALID,19.8378,VALID,153,VALID,1.76836,
2011-12-26, 02:58:04,VALID,916.431,VALID,0,VALID,97.0003,VALID,0,VALID,19.8378,VALID,151,VALID,1.61797,
2011-12-26, 02:59:04,VALID,916.446,VALID,0,VALID,96.9622,VALID,0,VALID,19.8978,VALID,172,VALID,2.41289,
2011-12-26, 03:00:04,VALID,916.431,VALID,0,VALID,96.947,VALID,0,VALID,19.8963,VALID,156,VALID,1.17148,
2011-12-26, 03:01:04,VALID,916.463,VALID,0,VALID,96.9241,VALID,0,VALID,19.9173,VALID,165,VALID,0.919141,
2011-12-26, 03:02:04,VALID,916.443,VALID,0,VALID,96.8403,VALID,0,VALID,19.8768,VALID,172,VALID,1.65273,
2011-12-26, 03:03:04,VALID,916.441,VALID,0,VALID,96.8021,VALID,0,VALID,19.8978,VALID,152,VALID,1.9582,
2011-12-26, 03:04:04,VALID,916.433,VALID,0,VALID,96.7716,VALID,0,VALID,19.8768,VALID,178,VALID,0.441797,
2011-12-26, 03:05:04,VALID,916.395,VALID,0,VALID,96.7335,VALID,0,VALID,19.8573,VALID,129,VALID,0.702344,
2011-12-26, 03:06:04,VALID,916.4,VALID,0,VALID,96.6954,VALID,0,VALID,19.8783,VALID,165,VALID,1.99961,
2011-12-26, 03:07:04,VALID,916.352,VALID,0,VALID,96.642,VALID,0,VALID,19.8783,VALID,151,VALID,1.3875,
2011-12-26, 03:08:04,VALID,916.337,VALID,0,VALID,96.6115,VALID,0.107441,VALID,19.8783,VALID,175,VALID,0.825781,
2011-12-26, 03:09:04,VALID,916.343,VALID,0,VALID,96.5887,VALID,0,VALID,19.8783,VALID,168,VALID,0.828516,
2011-12-26, 03:10:04,VALID,916.304,VALID,0,VALID,96.5506,VALID,0,VALID,19.8588,VALID,149,VALID,1.45156,
2011-12-26, 03:11:04,VALID,916.286,VALID,0,VALID,96.5658,VALID,0.107441,VALID,19.7988,VALID,159,VALID,1.81914,
2011-12-26, 03:12:04,VALID,916.269,VALID,0,VALID,96.5277,VALID,0,VALID,19.7988,VALID,149,VALID,1.14688,
2011-12-26, 03:13:04,VALID,916.291,VALID,0,VALID,96.5429,VALID,0,VALID,19.7988,VALID,123,VALID,1.2207,
2011-12-26, 03:14:04,VALID,916.253,VALID,0,VALID,96.5201,VALID,0,VALID,19.7793,VALID,120,VALID,0.742188,
2011-12-26, 03:15:04,VALID,916.29,VALID,0,VALID,96.4972,VALID,0,VALID,19.7583,VALID,128,VALID,1.01719,
2011-12-26, 03:16:04,VALID,916.305,VALID,0,VALID,96.4819,VALID,0.107441,VALID,19.7598,VALID,128,VALID,1.24922,
2011-12-26, 03:17:04,VALID,916.281,VALID,0,VALID,96.4362,VALID,0,VALID,19.7598,VALID,120,VALID,0.953125,
2011-12-26, 03:18:04,VALID,916.274,VALID,0,VALID,96.4362,VALID,0,VALID,19.7403,VALID,122,VALID,1.29648,
2011-12-26, 03:19:04,VALID,916.264,VALID,0,VALID,96.3905,VALID,0.107441,VALID,19.7403,VALID,121,VALID,1.12656,
2011-12-26, 03:20:04,VALID,916.246,VALID,0,VALID,96.3371,VALID,0,VALID,19.7418,VALID,125,VALID,1.57969,
2011-12-26, 03:21:04,VALID,916.209,VALID,0,VALID,96.2761,VALID,0,VALID,19.7403,VALID,105,VALID,1.38672,
2011-12-26, 03:22:04,VALID,916.22,VALID,0,VALID,96.2151,VALID,0.107441,VALID,19.7403,VALID,67,VALID,1.20469,
2011-12-26, 03:23:04,VALID,916.194,VALID,0,VALID,96.1541,VALID,0,VALID,19.7613,VALID,105,VALID,1.79609,
2011-12-26, 03:24:04,VALID,916.17,VALID,0,VALID,96.0855,VALID,0,VALID,19.7403,VALID,107,VALID,1.16875,
2011-12-26, 03:25:04,VALID,916.166,VALID,0,VALID,96.0627,VALID,0,VALID,19.7418,VALID,117,VALID,1.52773,
2011-12-26, 03:26:04,VALID,916.128,VALID,0,VALID,95.9941,VALID,0.107441,VALID,19.7403,VALID,152,VALID,1.63984,
2011-12-26, 03:27:04,VALID,916.101,VALID,0,VALID,95.9254,VALID,0,VALID,19.7613,VALID,129,VALID,1.62617,
2011-12-26, 03:28:04,VALID,916.108,VALID,0,VALID,95.8492,VALID,0,VALID,19.7598,VALID,133,VALID,1.79844,
2011-12-26, 03:29:04,VALID,916.072,VALID,0,VALID,95.7882,VALID,0,VALID,19.7598,VALID,117,VALID,1.73672,
2011-12-26, 03:30:04,VALID,916.093,VALID,0,VALID,95.7044,VALID,0,VALID,19.7598,VALID,123,VALID,1.48789,
2011-12-26, 03:31:04,VALID,916.062,VALID,0,VALID,95.6281,VALID,0,VALID,19.7598,VALID,112,VALID,1.07617,
2011-12-26, 03:32:04,VALID,916.07,VALID,0,VALID,95.6129,VALID,0,VALID,19.7403,VALID,134,VALID,1.58516,
2011-12-26, 03:33:04,VALID,916.075,VALID,0,VALID,95.59,VALID,0,VALID,19.7808,VALID,133,VALID,1.48711,
2011-12-26, 03:34:04,VALID,916.019,VALID,0,VALID,95.5138,VALID,0,VALID,19.7598,VALID,119,VALID,1.71602,
2011-12-26, 03:35:04,VALID,916.053,VALID,0,VALID,95.4757,VALID,0,VALID,19.7793,VALID,119,VALID,1.16484,
2011-12-26, 03:36:04,VALID,916.031,VALID,0,VALID,95.3918,VALID,0,VALID,19.7808,VALID,136,VALID,1.775,
2011-12-26, 03:37:04,VALID,916.039,VALID,0,VALID,95.3156,VALID,0.107441,VALID,19.7988,VALID,117,VALID,1.68398,
2011-12-26, 03:38:04,VALID,916.024,VALID,0,VALID,95.2241,VALID,0,VALID,19.7988,VALID,139,VALID,2.33008,
2011-12-26, 03:39:04,VALID,916.02,VALID,0,VALID,95.1555,VALID,0,VALID,19.8378,VALID,105,VALID,1.47812,
2011-12-26, 03:40:04,VALID,916.026,VALID,0,VALID,95.1174,VALID,0,VALID,19.8393,VALID,114,VALID,1.34258,
2011-12-26, 03:41:04,VALID,916.037,VALID,0,VALID,95.0945,VALID,0.107441,VALID,19.8183,VALID,120,VALID,1.35352,
2011-12-26, 03:42:04,VALID,916.052,VALID,0,VALID,95.1097,VALID,0,VALID,19.7988,VALID,93,VALID,1.09922,
2011-12-26, 03:43:04,VALID,916.035,VALID,0,VALID,95.1555,VALID,0.107441,VALID,19.7988,VALID,122,VALID,0.925391,
2011-12-26, 03:44:04,VALID,916.033,VALID,0,VALID,95.1326,VALID,0,VALID,19.8003,VALID,113,VALID,1.33398,